Location: Gälforsberget
(66.6500°N, 22.4167°E)
Time: 01:15:35
(UTC+00:00)

RESURS DK-1 - Pass Details

Date: 11 April 2026
Orbit: 523 x 530 km, 69.9° (Epoch: 20 May)

Event Time Altitude Azimuth Distance (km) Brightness Sun altitude
Exits shadow 22:30:47 19° 222° (SW) 1,302 3.8 -14.8°
Maximum altitude 22:33:31 70° 142° (SE) 567 2.2 -14.8°
Drops below altitude 10° 22:37:28 10° 59° (ENE) 1,782 5.4 -14.8°
Sets 22:39:40 0° 57° (ENE) 2,676 6.3 -14.7°
